YAOGAN 11 DEB

Satellite information

Favourite Embed

Satellite Type and Status

DEBRISIN ORBIT

Key statistics

Satellite YAOGAN 11 DEB at a glance.

Uptime

5564

Days in orbit

Revolutions

≈ 14.4

Per day

Orbit

SSO

Sun Synchronous Orbit

Inclination

98.1

Latest

Satellite identification and parameters

Extended collection of information and parameters for YAOGAN 11 DEB.

Object identification

Identified? True

Debris? True

Object name: YAOGAN 11 DEB

International designator: 2010-047E

Object number (NORAD): 38175

Object ID (CCSDS): 38175

Country: PEOPLES REPUBLIC OF CHINA (PRC)

Current information (Y/N): Y

RCS size: SMALL

Orbital parameters

Period: 99.654 minutes

Inclination: 98.1057 deg

SMA: 7120.181 km

Apoapsis: 863.852 km

Periapsis: 620.24 km

RAAN: 76.9389 deg

Eccentricy: 0.01710714

Argument of periapsis: 81.5469 deg

Mean anomaly: 280.5072 deg

Mean motion: 14.44994607 rev/day

Mean motion (dot): 0.00001814 rev/day2

B* drag term: 0.00044530742 1/REarth

Two-line elements (TLE)

Creation date: Dec. 15, 2025, 8:47 p.m.

Reference frame: TEME

Reference center: EARTH

Epoch: Dec. 15, 2025, 4:38 a.m. UTC

TLE line 0: 0 YAOGAN 11 DEB

TLE line 1: 1 38175U 10047E 25349.19340738 .00001814 00000-0 44531-3 0 9998

TLE line 2: 2 38175 98.1057 76.9389 0171071 81.5469 280.5072 14.44994607236393

Live tracking on map

Real-time ground track for satellite YAOGAN 11 DEB.

In-orbit conjunctions

A list of the most updated potential collisions computed for object YAOGAN 11 DEB.

Target Orbit TCA Probability of collision Miss distance Type
COSMOS 1275 DEB LEO 2025-08-23 10:17:42 0.0003069615 76.0 (m) DEBRIS

Associated space launch

YAOGAN 11 DEB was lifted into orbit during the mission ‘Long March 2D | Yaogan-11, Zheda Pixing 1B & Zheda Pixing 1C’, on board a Long March 2D space rocket.

The launch took place on Sept. 22, 2010, 2:42 a.m. from Launch Area 94 (SLS-2 / 603).

For more information about the launch, click the button.

Launch to space Long March 2D | Yaogan-11, Zheda Pixing 1B & Zheda Pixing 1C
Long March 2D | Yaogan-11, Zheda Pixing 1B & Zheda Pixing 1C

Agency: N/A

Status: Launch Successful

Launch date: Sept. 22, 2010, 2:42 a.m. UTC

Rocket: Long March 2D

Launch pad: Launch Area 94 (SLS-2 / 603)

Location: Jiuquan Satellite Launch Center, People's Republic of China

...

Latest news about this satellite

There are no fresh news available about this satellite. Check back as we update our databases every day.


Newsletter sign-up

Weekly statistics, charts and insights to help you stay on top of the space industry.